Regional Weather Roundup
Issued by NWS Sioux Falls, SD

Home | Current Version | Previous Version | Text Only | Print | Product List | Glossary Off
Versions: 1 2 3 4 5 6 7 8 9 10 11 12 13 14 15 16 17 18 19 20 21 22 23 24 25 26 27 28 29 30 31 32 33 34 35 36 37 38 39 40 41 42 43 44 45 46 47 48 49 50

000
ASUS43 KFSD 230410
RWRFSD

WEATHER ROUNDUP FOR SE SOUTH DAKOTA/SW MINNESOTA/NW IOWA
NATIONAL WEATHER SERVICE SIOUX FALLS SD
1000 PM CST SAT NOV 22 2014

NOTE: "FAIR" INDICATES FEW OR NO CLOUDS BELOW 12,000 FEET WITH NO
SIGNIFICANT WEATHER AND OR OBSTRUCTIONS TO VISIBILITY.


SDZ038>040-050-052>070-230500-
SOUTHEAST SOUTH DAKOTA

CITY           SKY/WX    TMP DP  RH WIND       PRES   REMARKS
CHAMBERLAIN    CLOUDY    39  32  75 CALM      29.42F
HURON          CLOUDY    37  32  82 S6        29.40F
MADISON        CLOUDY    39  39 100 S13       29.43F
MITCHELL       CLOUDY    43  34  70 CALM      29.41F
SIOUX FALLS    CLOUDY    43  38  82 S12       29.46S
WINNER         CLOUDY    49  32  52 SW6       29.44F
YANKTON        CLOUDY    48  37  66 SW15G25   29.47R
$$

MNZ071-072-080-081-089-090-097-098-230500-
SOUTHWEST MINNESOTA

CITY           SKY/WX    TMP DP  RH WIND       PRES   REMARKS
FAIRMONT       CLOUDY    46  43  87 S17       29.52S
JACKSON        CLOUDY    46  43  87 S16G25    29.50F
LUVERNE        CLOUDY    39  37  93 S7        29.49S FOG
MARSHALL       MOCLDY    43  36  75 SW21G29   29.43S
MONTEVIDEO     MOCLDY    36  36 100 S7        29.43F FOG
PIPESTONE      CLOUDY    39  37  93 SW12      29.45S FOG
REDWOOD FALLS  MOCLDY    37  35  92 S8        29.46F FOG
TRACY          MOCLDY    43  40  89 SW21G28   29.44F
WINDOM         CLOUDY    45  43  93 S17G24    29.48S FOG
WORTHINGTON    CLOUDY    45  45 100 S21G31    29.48F
$$

IAZ001>003-012>014-020>022-031-032-NEZ013-014-SDZ071-230500-
NORTHWEST IOWA

CITY           SKY/WX    TMP DP  RH WIND       PRES   REMARKS
CHEROKEE       MOCLDY    50  50  98 SW13G21   29.53F
DENISON        CLOUDY    54  54 100 S16G24    29.56F
ESTHERVILLE    CLOUDY    47  45  93 S15       29.51F
LE MARS        CLOUDY    50  48  93 S15G22    29.51S
ORANGE CITY    CLOUDY    50  46  87 S17G28    29.50S FOG
SHELDON        CLOUDY    50  50 100 S21G30    29.49S FOG
SIOUX CITY     CLOUDY    54  50  86 S18G24    29.52F
SPENCER        CLOUDY    49  46  90 S16       29.52S
STORM LAKE     CLOUDY    52  52 100 S23G29    29.54F FOG
$$

ABBREVIATIONS USED IN REMARKS
   TC - TEMPERATURE IN CELSIUS
  WCI - WIND CHILL INDEX
   HX - HEAT INDEX
  VSB - VISIBILITY



USA.gov is the U.S. government's official web portal to all federal, state and local government web resources and services.